Flag for Andorra Weather past 2 weeks in Andorra La Vella, Andorra

Now
37 °F

Light rain. Partly sunny.


Feels Like: 26 °F
Forecast: 20 / 35 °F
Wind: 23 mph from West

Location: Carcassonne Airport

Current Time: Feb 1, 2015 at 3:09:00 PM

Latest Report: Feb 1, 2015 at 2:30 PM


Visibility: 5 mi

Pressure: 29.68 "Hg

Humidity: 81%

Dew point: 32 °F

Location of Andorra La VellaLocation

Historic Weather in Andorra La Vella — Graph

°F

Andorra La Vella temperature yesterday

Maximum temperature yesterday: 48 °F (at 1:30 PM)
Minimum temperature yesterday: 39 °F (at 2:00 AM)
Average temperature yesterday: 41 °F

Past Weeks' High & Low Weather Summary

 TemperatureHumidityPressure
High55 °F (Jan 29, 9:30 PM)100% (Jan 18, 2:00 AM)30.48 "Hg (Jan 18, 2:00 AM)
Low25 °F (Jan 21, 7:30 AM)41% (Jan 29, 3:00 PM)29.12 "Hg (Jan 31, 5:00 AM)
Average41 °F78%29.94 "Hg
* Reported Jan 17 2:00 PM — Feb 1 2:00 PM, Andorra La Vella, Weather by CustomWeather, © 2014

Note: Actual official high and low records may vary slightly from our data, if they occured in-between our weather recording intervals... More about our weather records

Advertising

Andorra La Vella weather history for previous 24 hours

 ConditionsComfort  
Time TempWeatherWind HumidityBarometerVisibility
2:00 PM
Feb 1
37 °FLight rain. Mostly cloudy.16 mph81%29.68 "HgN/A
1:30 PM41 °FBroken clouds.20 mph70%29.68 "HgN/A
1:00 PM43 °FPartly sunny.24 mph71%29.68 "HgN/A
12:30 PM39 °FPartly sunny.22 mph75%29.68 "HgN/A
12:00 PM41 °FPartly sunny.21 mph76%29.68 "HgN/A
11:30 AM39 °FOvercast.21 mph81%29.68 "HgN/A
11:00 AM39 °FPartly sunny.24 mph81%29.65 "HgN/A
10:30 AM37 °FPartly sunny.17 mph93%29.65 "HgN/A
10:00 AM37 °FRain. Fog.17 mph93%29.65 "Hg2 mi
9:30 AM37 °FPartly sunny.15 mph93%29.62 "HgN/A
9:00 AM37 °FLight rain. Overcast.21 mph87%29.59 "HgN/A
8:30 AM37 °FLight rain. Overcast.18 mph87%29.56 "HgN/A
8:00 AM37 °FLight rain. Mostly cloudy.17 mph93%29.56 "HgN/A
7:30 AM37 °FLight rain. Mostly cloudy.17 mph93%29.53 "HgN/A
7:00 AM37 °FOvercast.18 mph87%29.53 "HgN/A
6:30 AM37 °FOvercast.21 mph87%29.50 "HgN/A
6:00 AM37 °FOvercast.18 mph87%29.50 "HgN/A
5:30 AM39 °FOvercast.17 mph87%29.50 "HgN/A
5:00 AM39 °FOvercast.18 mph87%29.47 "HgN/A
4:00 AM39 °FLight rain. Mostly cloudy.17 mph87%29.47 "HgN/A
3:30 AM39 °FLight rain. Overcast.16 mph87%29.47 "HgN/A
3:00 AM39 °FMostly cloudy.15 mph87%29.47 "HgN/A
2:30 AM39 °FPassing clouds.12 mph87%29.47 "HgN/A
2:00 AM39 °FPartly cloudy.12 mph87%29.47 "HgN/A
1:30 AM39 °FRain. Passing clouds.17 mph87%29.47 "HgN/A
1:00 AM39 °FPartly cloudy.13 mph81%29.47 "HgN/A
12:30 AM39 °FDrizzle. Mostly cloudy.14 mph81%29.47 "HgN/A
12:00 AM39 °FOvercast.10 mph81%29.47 "HgN/A
11:30 PM
Jan 31
39 °FOvercast.15 mph81%29.47 "HgN/A
11:00 PM39 °FOvercast.15 mph81%29.47 "HgN/A
10:30 PM39 °FOvercast.13 mph81%29.47 "HgN/A
10:00 PM39 °FOvercast.13 mph81%29.45 "HgN/A
9:30 PM39 °FMostly cloudy.15 mph81%29.45 "HgN/A
9:00 PM39 °FMostly cloudy.15 mph81%29.45 "HgN/A
8:30 PM39 °FMostly cloudy.17 mph81%29.42 "HgN/A
8:00 PM39 °FMostly cloudy.14 mph81%29.42 "HgN/A
7:30 PM41 °FMostly cloudy.14 mph76%29.42 "HgN/A
7:00 PM41 °FMostly cloudy.15 mph76%29.42 "HgN/A
6:30 PM41 °FPassing clouds.16 mph76%29.39 "HgN/A
6:00 PM41 °FPartly sunny.14 mph81%29.36 "HgN/A
5:30 PM41 °FBroken clouds.17 mph81%29.36 "HgN/A
5:00 PM41 °FPartly sunny.13 mph81%29.36 "HgN/A
4:30 PM39 °FBroken clouds.14 mph87%29.33 "HgN/A
4:00 PM39 °FBroken clouds.17 mph87%29.30 "HgN/A
3:30 PM41 °FLight rain. Broken clouds.16 mph87%29.30 "HgN/A
3:00 PM41 °FLight rain. Partly sunny.20 mph87%29.30 "Hg4 mi
Weather by CustomWeather, © 2014

See weather overviewHow to use our weather pages